| time (UTC) | temp C | wind direction | speed KPH | gust KPH | rain 1hr cm | rain 24hr cm | rain mn cm | humidity % | barometer mb |
| 20260502231104 | 10 | 315 | 0.0 | 0.0 | 0.00 | 0.00 | 0.00 | 53 | 1020.0 |
| 20260502230554 | 10 | 315 | 0.0 | 0.0 | 0.00 | 0.00 | 0.00 | 53 | 1020.0 |
| 20260502230044 | 10 | 315 | 0.0 | 1.6 | 0.00 | 0.00 | 0.00 | 53 | 1020.1 |
| 20260502225533 | 10 | 315 | 0.0 | 1.6 | 0.00 | 0.00 | 0.00 | 53 | 1020.1 |
| 20260502224512 | 10 | 315 | 0.0 | 1.6 | 0.00 | 0.00 | 0.00 | 53 | 1020.2 |
| 20260502224002 | 10 | 315 | 0.0 | 0.0 | 0.00 | 0.00 | 0.00 | 53 | 1020.2 |
| 20260502223452 | 10 | 315 | 0.0 | 1.6 | 0.00 | 0.00 | 0.00 | 53 | 1020.2 |
| 20260502222941 | 10 | 315 | 0.0 | 1.6 | 0.00 | 0.00 | 0.00 | 53 | 1020.3 |
| 20260502222431 | 10 | 315 | 0.0 | 0.0 | 0.00 | 0.00 | 0.00 | 52 | 1020.3 |
| 20260502221920 | 10 | 315 | 0.0 | 0.0 | 0.00 | 0.00 | 0.00 | 52 | 1020.4 |
| 20260502221410 | 10 | 315 | 0.0 | 0.0 | 0.00 | 0.00 | 0.00 | 51 | 1020.4 |
| 20260502220350 | 10 | 315 | 0.0 | 1.6 | 0.00 | 0.00 | 0.00 | 51 | 1020.4 |
| 20260502215839 | 10 | 315 | 0.0 | 3.2 | 0.00 | 0.00 | 0.00 | 52 | 1020.3 |
| 20260502215328 | 10 | 315 | 0.0 | 3.2 | 0.00 | 0.00 | 0.00 | 50 | 1020.3 |
| 20260502214307 | 10 | 315 | 0.0 | 1.6 | 0.00 | 0.00 | 0.00 | 52 | 1020.4 |
| 20260502213757 | 10 | 315 | 0.0 | 0.0 | 0.00 | 0.00 | 0.00 | 49 | 1020.4 |
| 20260502213247 | 11 | 315 | 0.0 | 1.6 | 0.00 | 0.00 | 0.00 | 49 | 1020.4 |
| 20260502212736 | 11 | 315 | 0.0 | 1.6 | 0.00 | 0.00 | 0.00 | 49 | 1020.5 |
| 20260502212225 | 11 | 315 | 0.0 | 0.0 | 0.00 | 0.00 | 0.00 | 48 | 1020.5 |
| 20260502211204 | 11 | 315 | 0.0 | 1.6 | 0.00 | 0.00 | 0.00 | 47 | 1020.6 |
| 20260502210654 | 11 | 315 | 0.0 | 3.2 | 0.00 | 0.00 | 0.00 | 47 | 1020.6 |
| 20260502210143 | 12 | 315 | 1.6 | 3.2 | 0.00 | 0.00 | 0.00 | 47 | 1020.7 |
| 20260502205122 | 12 | 315 | 1.6 | 3.2 | 0.00 | 0.00 | 0.00 | 47 | 1020.7 |
| 20260502204612 | 12 | 315 | 0.0 | 1.6 | 0.00 | 0.00 | 0.00 | 46 | 1020.6 |
| 20260502204101 | 12 | 315 | 0.0 | 3.2 | 0.00 | 0.00 | 0.00 | 46 | 1020.7 |
| 20260502203550 | 12 | 315 | 0.0 | 3.2 | 0.00 | 0.00 | 0.00 | 46 | 1020.7 |
| 20260502203040 | 12 | 315 | 0.0 | 1.6 | 0.00 | 0.00 | 0.00 | 46 | 1020.7 |
| 20260502202529 | 12 | 315 | 0.0 | 1.6 | 0.00 | 0.00 | 0.00 | 46 | 1020.8 |
| 20260502202019 | 12 | 315 | 1.6 | 3.2 | 0.00 | 0.00 | 0.00 | 45 | 1020.8 |
| 20260502201508 | 12 | 315 | 1.6 | 3.2 | 0.00 | 0.00 | 0.00 | 45 | 1020.9 |
| 20260502200957 | 12 | 315 | 1.6 | 3.2 | 0.00 | 0.00 | 0.00 | 45 | 1020.9 |
| 20260502200447 | 12 | 315 | 1.6 | 3.2 | 0.00 | 0.00 | 0.00 | 45 | 1020.9 |
| 20260502195936 | 12 | 315 | 0.0 | 3.2 | 0.00 | 0.00 | 0.00 | 45 | 1021.0 |
| 20260502195425 | 12 | 315 | 0.0 | 3.2 | 0.00 | 0.00 | 0.00 | 44 | 1020.9 |
| 20260502194404 | 12 | 315 | 0.0 | 1.6 | 0.00 | 0.00 | 0.00 | 44 | 1021.0 |
| 20260502193854 | 12 | 315 | 1.6 | 1.6 | 0.00 | 0.00 | 0.00 | 44 | 1021.0 |
| 20260502193343 | 12 | 315 | 1.6 | 3.2 | 0.00 | 0.00 | 0.00 | 43 | 1021.0 |
| 20260502192832 | 12 | 315 | 0.0 | 1.6 | 0.00 | 0.00 | 0.00 | 43 | 1021.0 |
| 20260502192322 | 12 | 315 | 0.0 | 0.0 | 0.00 | 0.00 | 0.00 | 41 | 1021.0 |
| 20260502191811 | 12 | 315 | 0.0 | 1.6 | 0.00 | 0.00 | 0.00 | 41 | 1020.9 |
| 20260502191300 | 12 | 315 | 0.0 | 1.6 | 0.00 | 0.00 | 0.00 | 39 | 1021.0 |
| 20260502190750 | 12 | 315 | 0.0 | 1.6 | 0.00 | 0.00 | 0.00 | 39 | 1020.9 |
| 20260502190239 | 12 | 315 | 0.0 | 1.6 | 0.00 | 0.00 | 0.00 | 38 | 1021.0 |
| 20260502185728 | 13 | 315 | 0.0 | 0.0 | 0.00 | 0.00 | 0.00 | 38 | 1020.9 |
| 20260502185218 | 13 | 315 | 0.0 | 0.0 | 0.00 | 0.00 | 0.00 | 37 | 1020.9 |
| 20260502184707 | 13 | 315 | 0.0 | 0.0 | 0.00 | 0.00 | 0.00 | 37 | 1020.8 |
| 20260502183645 | 14 | 315 | 0.0 | 0.0 | 0.00 | 0.00 | 0.00 | 36 | 1020.8 |
| 20260502183134 | 15 | 315 | 0.0 | 0.0 | 0.00 | 0.00 | 0.00 | 36 | 1020.8 |
| 20260502182624 | 15 | 315 | 0.0 | 0.0 | 0.00 | 0.00 | 0.00 | 35 | 1020.7 |
| 20260502182113 | 16 | 315 | 0.0 | 0.0 | 0.00 | 0.00 | 0.00 | 35 | 1020.7 |
| 20260502181602 | 17 | 315 | 0.0 | 0.0 | 0.00 | 0.00 | 0.00 | 33 | 1020.7 |
| 20260502181050 | 17 | 315 | 0.0 | 0.0 | 0.00 | 0.00 | 0.00 | 32 | 1020.6 |
| 20260502180539 | 18 | 315 | 0.0 | 0.0 | 0.00 | 0.00 | 0.00 | 31 | 1020.6 |
| 20260502170318 | 25 | 315 | 0.0 | 1.6 | 0.00 | 0.00 | 0.00 | 25 | 1020.7 |
| 20260502164229 | 26 | 315 | 3.2 | 4.8 | 0.00 | 0.00 | 0.00 | 25 | 1020.9 |
| 20260502163717 | 26 | 315 | 1.6 | 3.2 | 0.00 | 0.00 | 0.00 | 25 | 1020.9 |
| 20260502163205 | 26 | 315 | 0.0 | 1.6 | 0.00 | 0.00 | 0.00 | 26 | 1021.0 |
| 20260502162653 | 26 | 315 | 1.6 | 3.2 | 0.00 | 0.00 | 0.00 | 25 | 1021.0 |
| 20260502162141 | 26 | 315 | 1.6 | 3.2 | 0.00 | 0.00 | 0.00 | 25 | 1021.1 |
| 20260502161629 | 26 | 315 | 1.6 | 4.8 | 0.00 | 0.00 | 0.00 | 25 | 1021.2 |
| 20260502160605 | 26 | 315 | 3.2 | 4.8 | 0.00 | 0.00 | 0.00 | 25 | 1021.3 |
| 20260502151915 | 27 | 315 | 1.6 | 4.8 | 0.00 | 0.00 | 0.00 | 26 | 1021.8 |
| 20260502151402 | 27 | 315 | 3.2 | 3.2 | 0.00 | 0.00 | 0.00 | 25 | 1021.8 |
| 20260502150850 | 27 | 315 | 1.6 | 4.8 | 0.00 | 0.00 | 0.00 | 25 | 1021.9 |
| 20260502150338 | 26 | 315 | 0.0 | 1.6 | 0.00 | 0.00 | 0.00 | 26 | 1022.0 |
| 20260502140111 | 26 | 315 | 0.0 | 1.6 | 0.00 | 0.00 | 0.00 | 28 | 1022.5 |
| 20260502130359 | 23 | 315 | 1.6 | 3.2 | 0.00 | 0.00 | 0.00 | 32 | 1023.3 |
| 20260502123800 | 21 | 315 | 4.8 | 8.0 | 0.00 | 0.00 | 0.00 | 31 | 1023.5 |
| 20260502122736 | 21 | 315 | 3.2 | 6.4 | 0.00 | 0.00 | 0.00 | 34 | 1023.5 |
| 20260502122225 | 21 | 315 | 3.2 | 4.8 | 0.00 | 0.00 | 0.00 | 34 | 1023.6 |
| 20260502121713 | 21 | 315 | 3.2 | 4.8 | 0.00 | 0.00 | 0.00 | 34 | 1023.7 |
| 20260502121202 | 21 | 315 | 3.2 | 6.4 | 0.00 | 0.00 | 0.00 | 34 | 1023.8 |
| 20260502120650 | 21 | 315 | 3.2 | 6.4 | 0.00 | 0.00 | 0.00 | 34 | 1023.8 |
| 20260502120139 | 20 | 315 | 4.8 | 6.4 | 0.00 | 0.00 | 0.00 | 34 | 1023.9 |
| 20260502115627 | 20 | 315 | 4.8 | 6.4 | 0.00 | 0.00 | 0.00 | 34 | 1023.9 |
| 20260502115116 | 20 | 315 | 4.8 | 8.0 | 0.00 | 0.00 | 0.00 | 34 | 1024.0 |
| 20260502114604 | 21 | 315 | 1.6 | 6.4 | 0.00 | 0.00 | 0.00 | 34 | 1023.9 |
| 20260502114052 | 21 | 315 | 1.6 | 3.2 | 0.00 | 0.00 | 0.00 | 34 | 1024.1 |
| 20260502113541 | 21 | 315 | 3.2 | 4.8 | 0.00 | 0.00 | 0.00 | 34 | 1024.1 |
| 20260502113029 | 21 | 315 | 3.2 | 4.8 | 0.00 | 0.00 | 0.00 | 34 | 1024.2 |
| 20260502112518 | 21 | 315 | 3.2 | 6.4 | 0.00 | 0.00 | 0.00 | 35 | 1024.2 |
| 20260502112006 | 21 | 315 | 1.6 | 3.2 | 0.00 | 0.00 | 0.00 | 36 | 1024.3 |
| 20260502110431 | 20 | 315 | 4.8 | 6.4 | 0.00 | 0.00 | 0.00 | 35 | 1024.5 |
| 20260502105408 | 20 | 315 | 3.2 | 4.8 | 0.00 | 0.00 | 0.00 | 36 | 1024.6 |
| 20260502104857 | 20 | 315 | 1.6 | 4.8 | 0.00 | 0.00 | 0.00 | 37 | 1024.7 |
| 20260502104345 | 20 | 315 | 3.2 | 4.8 | 0.00 | 0.00 | 0.00 | 38 | 1024.7 |
| 20260502103834 | 20 | 315 | 4.8 | 6.4 | 0.00 | 0.00 | 0.00 | 36 | 1024.8 |
| 20260502103322 | 20 | 315 | 3.2 | 6.4 | 0.00 | 0.00 | 0.00 | 37 | 1024.8 |
| 20260502102811 | 20 | 315 | 1.6 | 3.2 | 0.00 | 0.00 | 0.00 | 39 | 1024.8 |
| 20260502102259 | 19 | 315 | 1.6 | 3.2 | 0.00 | 0.00 | 0.00 | 42 | 1024.9 |
| 20260502101748 | 18 | 315 | 3.2 | 4.8 | 0.00 | 0.00 | 0.00 | 43 | 1025.0 |
| 20260502101237 | 18 | 315 | 3.2 | 6.4 | 0.00 | 0.00 | 0.00 | 42 | 1025.0 |
| 20260502100725 | 18 | 315 | 4.8 | 6.4 | 0.00 | 0.00 | 0.00 | 45 | 1025.0 |
| 20260502091534 | 15 | 315 | 3.2 | 4.8 | 0.00 | 0.00 | 0.00 | 54 | 1025.5 |
| 20260502091023 | 15 | 315 | 3.2 | 4.8 | 0.00 | 0.00 | 0.00 | 54 | 1025.6 |
| 20260502090512 | 15 | 315 | 3.2 | 4.8 | 0.00 | 0.00 | 0.00 | 54 | 1025.7 |
| 20260502070605 | 11 | 315 | 0.0 | 1.6 | 0.00 | 0.00 | 0.00 | 66 | 1026.0 |
| 20260502065544 | 11 | 315 | 0.0 | 1.6 | 0.00 | 0.00 | 0.00 | 67 | 1026.0 |
| 20260502064523 | 11 | 315 | 1.6 | 3.2 | 0.00 | 0.00 | 0.00 | 67 | 1026.0 |
| 20260502064013 | 11 | 315 | 1.6 | 3.2 | 0.00 | 0.00 | 0.00 | 68 | 1026.0 |
| 20260502063502 | 11 | 315 | 1.6 | 3.2 | 0.00 | 0.00 | 0.00 | 69 | 1026.0 |
| 20260502062952 | 11 | 315 | 1.6 | 3.2 | 0.00 | 0.00 | 0.00 | 70 | 1026.0 |
| 20260502062441 | 11 | 315 | 1.6 | 3.2 | 0.00 | 0.00 | 0.00 | 71 | 1026.0 |
| 20260502061931 | 10 | 315 | 1.6 | 3.2 | 0.00 | 0.00 | 0.00 | 72 | 1026.0 |
| 20260502060910 | 10 | 315 | 0.0 | 1.6 | 0.00 | 0.00 | 0.00 | 74 | 1026.1 |
| 20260502060400 | 10 | 315 | 1.6 | 3.2 | 0.00 | 0.00 | 0.00 | 75 | 1026.1 |
| 20260502055849 | 10 | 315 | 0.0 | 3.2 | 0.00 | 0.00 | 0.00 | 75 | 1026.1 |
| 20260502055339 | 10 | 315 | 0.0 | 0.0 | 0.00 | 0.00 | 0.00 | 76 | 1026.1 |
| 20260502054828 | 9 | 315 | 0.0 | 0.0 | 0.00 | 0.00 | 0.00 | 77 | 1026.1 |
| 20260502054318 | 9 | 315 | 0.0 | 0.0 | 0.00 | 0.00 | 0.00 | 77 | 1026.0 |
| 20260502053808 | 9 | 315 | 0.0 | 0.0 | 0.00 | 0.00 | 0.00 | 79 | 1026.0 |
| 20260502053257 | 8 | 315 | 0.0 | 0.0 | 0.00 | 0.00 | 0.00 | 78 | 1026.0 |
| 20260502052747 | 8 | 315 | 0.0 | 0.0 | 0.00 | 0.00 | 0.00 | 79 | 1026.0 |
| 20260502052237 | 8 | 315 | 0.0 | 0.0 | 0.00 | 0.00 | 0.00 | 79 | 1025.9 |
| 20260502051216 | 8 | 315 | 0.0 | 0.0 | 0.00 | 0.00 | 0.00 | 80 | 1025.8 |
| 20260502050706 | 8 | 315 | 0.0 | 0.0 | 0.00 | 0.00 | 0.00 | 81 | 1025.8 |
| 20260502050156 | 8 | 315 | 0.0 | 0.0 | 0.00 | 0.00 | 0.00 | 81 | 1025.8 |
| 20260502045645 | 8 | 315 | 0.0 | 0.0 | 0.00 | 0.00 | 0.00 | 82 | 1025.8 |
| 20260502045135 | 8 | 315 | 0.0 | 0.0 | 0.00 | 0.00 | 0.00 | 81 | 1025.8 |
| 20260502044625 | 7 | 315 | 0.0 | 0.0 | 0.00 | 0.00 | 0.00 | 81 | 1025.8 |
| 20260502043605 | 7 | 315 | 0.0 | 0.0 | 0.00 | 0.00 | 0.00 | 81 | 1025.7 |
| 20260502043054 | 7 | 315 | 0.0 | 0.0 | 0.00 | 0.00 | 0.00 | 80 | 1025.7 |
| 20260502042544 | 7 | 315 | 0.0 | 0.0 | 0.00 | 0.00 | 0.00 | 80 | 1025.7 |
| 20260502042034 | 7 | 315 | 0.0 | 0.0 | 0.00 | 0.00 | 0.00 | 79 | 1025.7 |
| 20260502041524 | 7 | 315 | 0.0 | 0.0 | 0.00 | 0.00 | 0.00 | 79 | 1025.6 |
| 20260502041014 | 7 | 315 | 0.0 | 0.0 | 0.00 | 0.00 | 0.00 | 78 | 1025.7 |
| 20260502040504 | 7 | 315 | 0.0 | 0.0 | 0.00 | 0.00 | 0.00 | 78 | 1025.7 |
| 20260502035953 | 7 | 315 | 0.0 | 0.0 | 0.00 | 0.00 | 0.00 | 78 | 1025.7 |
| 20260502035443 | 7 | 315 | 0.0 | 0.0 | 0.00 | 0.00 | 0.00 | 78 | 1025.7 |
| 20260502034933 | 7 | 315 | 0.0 | 0.0 | 0.00 | 0.00 | 0.00 | 77 | 1025.7 |
| 20260502034423 | 7 | 315 | 0.0 | 0.0 | 0.00 | 0.00 | 0.00 | 77 | 1025.7 |
| 20260502033913 | 7 | 315 | 0.0 | 0.0 | 0.00 | 0.00 | 0.00 | 77 | 1025.7 |
| 20260502033402 | 7 | 315 | 0.0 | 0.0 | 0.00 | 0.00 | 0.00 | 76 | 1025.7 |
| 20260502032852 | 7 | 315 | 0.0 | 0.0 | 0.00 | 0.00 | 0.00 | 77 | 1025.6 |
| 20260502032342 | 7 | 315 | 0.0 | 0.0 | 0.00 | 0.00 | 0.00 | 77 | 1025.6 |
| 20260502031832 | 7 | 315 | 0.0 | 0.0 | 0.00 | 0.00 | 0.00 | 77 | 1025.6 |
| 20260502031322 | 7 | 315 | 0.0 | 0.0 | 0.00 | 0.00 | 0.00 | 77 | 1025.6 |
| 20260502030812 | 7 | 315 | 0.0 | 0.0 | 0.00 | 0.00 | 0.00 | 77 | 1025.7 |
| 20260502030301 | 7 | 315 | 0.0 | 0.0 | 0.00 | 0.00 | 0.00 | 77 | 1025.6 |
| 20260502025751 | 7 | 315 | 0.0 | 0.0 | 0.00 | 0.00 | 0.00 | 77 | 1025.6 |
| 20260502025241 | 7 | 315 | 0.0 | 0.0 | 0.00 | 0.00 | 0.00 | 77 | 1025.7 |
| 20260502024731 | 7 | 315 | 0.0 | 0.0 | 0.00 | 0.00 | 0.00 | 77 | 1025.7 |
| 20260502024221 | 7 | 315 | 0.0 | 0.0 | 0.00 | 0.00 | 0.00 | 76 | 1025.7 |
| 20260502023710 | 7 | 315 | 0.0 | 0.0 | 0.00 | 0.00 | 0.00 | 76 | 1025.8 |
| 20260502023200 | 7 | 315 | 0.0 | 0.0 | 0.00 | 0.00 | 0.00 | 76 | 1025.8 |
| 20260502022650 | 7 | 315 | 0.0 | 0.0 | 0.00 | 0.00 | 0.00 | 76 | 1025.8 |
| 20260502021630 | 7 | 315 | 0.0 | 0.0 | 0.00 | 0.00 | 0.00 | 76 | 1025.8 |
| 20260502021120 | 7 | 315 | 0.0 | 0.0 | 0.00 | 0.00 | 0.00 | 76 | 1025.9 |
| 20260502020609 | 7 | 315 | 0.0 | 0.0 | 0.00 | 0.00 | 0.00 | 76 | 1025.8 |
| 20260502020059 | 7 | 315 | 0.0 | 0.0 | 0.00 | 0.00 | 0.00 | 76 | 1025.9 |
| 20260502015549 | 7 | 315 | 0.0 | 0.0 | 0.00 | 0.00 | 0.00 | 76 | 1025.9 |
| 20260502015039 | 7 | 315 | 0.0 | 0.0 | 0.00 | 0.00 | 0.00 | 76 | 1026.0 |
| 20260502014529 | 7 | 315 | 0.0 | 0.0 | 0.00 | 0.00 | 0.00 | 76 | 1026.0 |
| 20260502014018 | 7 | 315 | 0.0 | 0.0 | 0.00 | 0.00 | 0.00 | 77 | 1026.0 |
| 20260502012958 | 7 | 315 | 0.0 | 0.0 | 0.00 | 0.00 | 0.00 | 77 | 1026.0 |
| 20260502012448 | 7 | 315 | 0.0 | 0.0 | 0.00 | 0.00 | 0.00 | 77 | 1026.0 |
| 20260502011938 | 7 | 315 | 0.0 | 0.0 | 0.00 | 0.00 | 0.00 | 76 | 1026.1 |
| 20260502011427 | 7 | 315 | 0.0 | 0.0 | 0.00 | 0.00 | 0.00 | 76 | 1026.1 |
| 20260502010407 | 7 | 315 | 0.0 | 0.0 | 0.00 | 0.00 | 0.00 | 76 | 1026.2 |
| 20260502005857 | 7 | 315 | 0.0 | 0.0 | 0.00 | 0.00 | 0.00 | 75 | 1026.2 |
| 20260502005347 | 7 | 315 | 0.0 | 0.0 | 0.00 | 0.00 | 0.00 | 75 | 1026.2 |
| 20260502004326 | 7 | 315 | 0.0 | 0.0 | 0.00 | 0.00 | 0.00 | 75 | 1026.2 |
| 20260502003816 | 7 | 315 | 0.0 | 0.0 | 0.00 | 0.00 | 0.00 | 75 | 1026.2 |
| 20260502003306 | 7 | 315 | 0.0 | 0.0 | 0.00 | 0.00 | 0.00 | 74 | 1026.2 |
| 20260502002756 | 7 | 315 | 0.0 | 0.0 | 0.00 | 0.00 | 0.00 | 74 | 1026.2 |
| 20260502002245 | 7 | 315 | 0.0 | 0.0 | 0.00 | 0.00 | 0.00 | 74 | 1026.2 |
| 20260502001735 | 7 | 315 | 0.0 | 0.0 | 0.00 | 0.00 | 0.00 | 74 | 1026.3 |
| 20260502001225 | 7 | 315 | 0.0 | 0.0 | 0.00 | 0.00 | 0.00 | 74 | 1026.3 |
| 20260502000205 | 7 | 315 | 0.0 | 0.0 | 0.00 | 0.00 | 0.00 | 74 | 1026.4 |
| 20260501235654 | 7 | 315 | 0.0 | 0.0 | 0.00 | 0.00 | 0.00 | 74 | 1026.3 |
| 20260501235144 | 7 | 315 | 0.0 | 0.0 | 0.00 | 0.00 | 0.00 | 74 | 1026.3 |
| 20260501234634 | 7 | 315 | 0.0 | 0.0 | 0.00 | 0.00 | 0.00 | 73 | 1026.4 |
| 20260501234124 | 7 | 315 | 0.0 | 0.0 | 0.00 | 0.00 | 0.00 | 74 | 1026.4 |
| 20260501233614 | 7 | 315 | 0.0 | 0.0 | 0.00 | 0.00 | 0.00 | 72 | 1026.4 |
| 20260501233104 | 7 | 315 | 0.0 | 0.0 | 0.00 | 0.00 | 0.00 | 72 | 1026.5 |
| 20260501232553 | 7 | 315 | 0.0 | 0.0 | 0.00 | 0.00 | 0.00 | 72 | 1026.5 |